Time,TemperatureF,DewpointF,PressureIn,WindDirection,WindDirectionDegrees,WindSpeedMPH,WindSpeedGustMPH,Humidity,HourlyPrecipIn,Conditions,Clouds,dailyrainin,SoftwareType,DateUTC
2013-04-28 00:03:00,58.0,-99.9,-100.00,ENE,72,2.0,10.0,55,0.00,,,-99.99,,2013-04-28 04:03:00,
2013-04-28 00:13:00,58.0,41.0,-100.00,ENE,72,1.0,10.0,55,0.00,,,-99.99,,2013-04-28 04:13:00,
2013-04-28 00:23:00,58.0,41.0,-100.00,ENE,62,1.0,10.0,56,0.00,,,-99.99,,2013-04-28 04:23:00,
2013-04-28 00:32:00,57.0,41.0,-100.00,East,83,1.0,10.0,58,0.00,,,-99.99,,2013-04-28 04:32:00,
2013-04-28 00:43:00,58.0,43.0,-100.00,ENE,72,1.0,10.0,58,0.00,,,-99.99,,2013-04-28 04:43:00,
2013-04-28 00:53:00,57.0,43.0,-100.00,ENE,72,0.0,10.0,59,2.83,,,-99.99,,2013-04-28 04:53:00,
2013-04-28 01:02:00,58.0,45.0,-100.00,East,83,1.0,10.0,63,11.34,,,-99.99,,2013-04-28 05:02:00,
2013-04-28 01:12:00,56.0,45.0,-100.00,East,81,1.0,10.0,68,23.23,,,-99.99,,2013-04-28 05:12:00,
2013-04-28 01:22:00,55.0,45.0,-100.00,ENE,72,0.0,0.0,71,0.00,,,-99.99,,2013-04-28 05:22:00,
2013-04-28 01:32:00,54.0,46.0,-100.00,ENE,62,1.0,2.0,80,0.00,,,-99.99,,2013-04-28 05:32:00,
2013-04-28 01:42:00,54.0,46.0,-100.00,ENE,62,1.0,2.0,81,0.00,,,-99.99,,2013-04-28 05:42:00,
2013-04-28 01:52:00,54.0,46.0,-100.00,East,81,1.0,2.0,76,0.00,,,-99.99,,2013-04-28 05:52:00,
2013-04-28 02:01:00,54.0,45.0,-100.00,East,83,2.0,2.0,75,0.00,,,-99.99,,2013-04-28 06:01:00,
2013-04-28 02:12:00,55.0,45.0,-100.00,ENE,73,2.0,2.0,72,0.00,,,-99.99,,2013-04-28 06:12:00,
2013-04-28 02:21:00,58.0,48.0,-100.00,East,81,1.0,2.0,73,0.00,,,-99.99,,2013-04-28 06:21:00,
2013-04-28 02:32:00,55.0,46.0,-100.00,ENE,70,2.0,2.0,73,0.00,,,-99.99,,2013-04-28 06:32:00,
2013-04-28 02:42:00,55.0,45.0,-100.00,ENE,72,2.0,2.0,72,0.00,,,-99.99,,2013-04-28 06:42:00,
2013-04-28 02:52:00,55.0,45.0,-100.00,East,79,1.0,2.0,71,0.00,,,-99.99,,2013-04-28 06:52:00,
2013-04-28 03:01:00,58.0,48.0,-100.00,East,81,2.0,4.0,73,0.00,,,-99.99,,2013-04-28 07:01:00,
2013-04-28 03:11:00,55.0,45.0,-100.00,ENE,62,1.0,4.0,72,0.00,,,-99.99,,2013-04-28 07:11:00,
2013-04-28 03:21:00,57.0,48.0,-100.00,East,81,2.0,4.0,75,0.00,,,-99.99,,2013-04-28 07:21:00,
2013-04-28 03:32:00,55.0,45.0,-100.00,East,83,3.0,4.0,72,0.00,,,-99.99,,2013-04-28 07:32:00,
2013-04-28 03:42:00,55.0,45.0,-100.00,ENE,77,3.0,4.0,71,0.00,,,-99.99,,2013-04-28 07:42:00,
2013-04-28 03:52:00,58.0,48.0,-100.00,East,83,4.0,6.0,73,0.00,,,-99.99,,2013-04-28 07:52:00,
2013-04-28 04:02:00,55.0,45.0,-100.00,ENE,70,3.0,6.0,72,0.00,,,-99.99,,2013-04-28 08:02:00,
2013-04-28 04:12:00,57.0,48.0,-100.00,ENE,70,3.0,6.0,73,0.00,,,-99.99,,2013-04-28 08:12:00,
2013-04-28 04:21:00,57.0,48.0,-100.00,ENE,72,2.0,6.0,75,0.00,,,-99.99,,2013-04-28 08:21:00,
2013-04-28 04:32:00,57.0,48.0,-100.00,East,80,4.0,6.0,75,0.00,,,-99.99,,2013-04-28 08:32:00,
2013-04-28 04:42:00,55.0,45.0,-100.00,ENE,70,5.0,6.0,72,0.00,,,-99.99,,2013-04-28 08:42:00,
2013-04-28 04:52:00,55.0,46.0,-100.00,East,81,4.0,6.0,75,0.00,,,-99.99,,2013-04-28 08:52:00,
2013-04-28 05:01:00,55.0,46.0,-100.00,ENE,72,4.0,6.0,73,0.00,,,-99.99,,2013-04-28 09:01:00,
2013-04-28 05:12:00,58.0,50.0,-100.00,ENE,72,5.0,6.0,76,0.00,,,-99.99,,2013-04-28 09:12:00,
2013-04-28 05:21:00,57.0,48.0,-100.00,ENE,70,3.0,6.0,76,0.00,,,-99.99,,2013-04-28 09:21:00,
2013-04-28 05:33:00,57.0,48.0,-100.00,East,83,4.0,6.0,76,0.00,,,-99.99,,2013-04-28 09:33:00,
2013-04-28 05:42:00,57.0,50.0,-100.00,ENE,62,2.0,6.0,81,0.00,,,-99.99,,2013-04-28 09:42:00,
2013-04-28 05:53:00,53.0,48.0,-100.00,ENE,72,4.0,6.0,84,3.39,,,-99.99,,2013-04-28 09:53:00,
2013-04-28 06:03:00,52.0,48.0,-100.00,ENE,63,4.0,6.0,88,9.06,,,-99.99,,2013-04-28 10:03:00,
2013-04-28 06:12:00,51.0,48.0,-100.00,ENE,72,6.0,8.0,91,11.89,,,-99.99,,2013-04-28 10:12:00,
2013-04-28 06:22:00,51.0,50.0,-100.00,East,83,5.0,8.0,97,12.48,,,-99.99,,2013-04-28 10:22:00,
2013-04-28 06:32:00,48.0,46.0,-100.00,ENE,63,5.0,8.0,100,23.82,,,-99.99,,2013-04-28 10:32:00,
2013-04-28 06:42:00,47.0,32.0,-100.00,ENE,72,3.0,8.0,55,24.96,,,-99.99,,2013-04-28 10:42:00,
2013-04-28 06:52:00,47.0,32.0,-100.00,ENE,72,4.0,8.0,55,22.68,,,-99.99,,2013-04-28 10:52:00,
2013-04-28 07:02:00,45.0,32.0,-100.00,ENE,72,2.0,8.0,60,15.31,,,-99.99,,2013-04-28 11:02:00,
2013-04-28 07:11:00,44.0,32.0,-100.00,ENE,72,2.0,8.0,62,13.62,,,-99.99,,2013-04-28 11:11:00,
2013-04-28 07:22:00,43.0,32.0,-100.00,ENE,72,3.0,8.0,64,16.46,,,-99.99,,2013-04-28 11:22:00,
2013-04-28 07:32:00,43.0,32.0,-100.00,ENE,69,2.0,8.0,64,13.62,,,-99.99,,2013-04-28 11:32:00,
2013-04-28 07:42:00,43.0,32.0,-100.00,ENE,72,1.0,8.0,64,22.13,,,-99.99,,2013-04-28 11:42:00,
2013-04-28 07:52:00,42.0,32.0,-100.00,ENE,72,2.0,8.0,67,-99.99,,,-99.99,,2013-04-28 11:52:00,
2013-04-28 08:02:00,43.0,32.0,-100.00,East,83,1.0,8.0,64,15.87,,,-99.99,,2013-04-28 12:02:00,
2013-04-28 08:12:00,42.0,32.0,-100.00,ENE,63,2.0,8.0,67,2.28,,,-99.99,,2013-04-28 12:12:00,
2013-04-28 08:21:00,42.0,32.0,-100.00,East,83,2.0,8.0,67,5.12,,,-99.99,,2013-04-28 12:21:00,
2013-04-28 08:32:00,42.0,32.0,-100.00,ENE,72,1.0,8.0,67,8.50,,,-99.99,,2013-04-28 12:32:00,
2013-04-28 08:42:00,43.0,32.0,-100.00,East,83,1.0,8.0,64,3.98,,,-99.99,,2013-04-28 12:42:00,
2013-04-28 08:52:00,43.0,32.0,-100.00,East,83,2.0,8.0,64,3.98,,,-99.99,,2013-04-28 12:52:00,
2013-04-28 09:02:00,41.0,32.0,-100.00,ENE,72,2.0,8.0,70,8.50,,,-99.99,,2013-04-28 13:02:00,
2013-04-28 09:11:00,42.0,32.0,-100.00,ENE,72,2.0,8.0,67,11.89,,,-99.99,,2013-04-28 13:11:00,
2013-04-28 09:21:00,42.0,32.0,-100.00,ENE,72,1.0,8.0,67,2.83,,,-99.99,,2013-04-28 13:21:00,
2013-04-28 09:32:00,42.0,32.0,-100.00,ENE,72,1.0,8.0,67,6.81,,,-99.99,,2013-04-28 13:32:00,
2013-04-28 09:42:00,43.0,32.0,-100.00,ENE,62,0.0,8.0,64,1.14,,,-99.99,,2013-04-28 13:42:00,
2013-04-28 09:52:00,43.0,32.0,-100.00,East,83,0.0,8.0,64,0.55,,,-99.99,,2013-04-28 13:52:00,
2013-04-28 10:02:00,44.0,32.0,-100.00,East,83,0.0,8.0,62,0.00,,,-99.99,,2013-04-28 14:02:00,
2013-04-28 10:11:00,44.0,32.0,-100.00,ENE,73,0.0,8.0,62,0.55,,,-99.99,,2013-04-28 14:11:00,
2013-04-28 10:22:00,45.0,32.0,-100.00,ENE,72,1.0,8.0,60,1.69,,,-99.99,,2013-04-28 14:22:00,
2013-04-28 10:32:00,45.0,32.0,-100.00,ENE,73,2.0,8.0,60,0.00,,,-99.99,,2013-04-28 14:32:00,
2013-04-28 10:42:00,49.0,32.0,-100.00,ENE,72,2.0,8.0,51,0.00,,,-99.99,,2013-04-28 14:42:00,
2013-04-28 10:52:00,46.0,32.0,-100.00,ENE,73,1.0,8.0,57,0.00,,,-99.99,,2013-04-28 14:52:00,
2013-04-28 11:02:00,46.0,32.0,-100.00,ENE,72,1.0,8.0,57,0.00,,,-99.99,,2013-04-28 15:02:00,
2013-04-28 11:12:00,48.0,32.0,-100.00,East,83,0.0,8.0,53,0.00,,,-99.99,,2013-04-28 15:12:00,
2013-04-28 11:21:00,48.0,32.0,-100.00,ENE,76,1.0,8.0,53,0.00,,,-99.99,,2013-04-28 15:21:00,
2013-04-28 11:32:00,49.0,32.0,-100.00,ENE,72,1.0,8.0,51,0.00,,,-99.99,,2013-04-28 15:32:00,
2013-04-28 11:42:00,49.0,32.0,-100.00,ENE,72,2.0,8.0,51,0.00,,,-99.99,,2013-04-28 15:42:00,
2013-04-28 11:53:00,50.0,48.0,-100.00,ENE,72,1.0,8.0,100,0.00,,,-99.99,,2013-04-28 15:53:00,
2013-04-28 12:03:00,51.0,32.0,-100.00,ENE,64,1.0,8.0,47,0.00,,,-99.99,,2013-04-28 16:03:00,
2013-04-28 12:13:00,50.0,32.0,-100.00,ENE,72,2.0,8.0,49,0.00,,,-99.99,,2013-04-28 16:13:00,
2013-04-28 12:23:00,51.0,32.0,-100.00,ENE,73,1.0,8.0,47,0.00,,,-99.99,,2013-04-28 16:23:00,
2013-04-28 12:33:00,51.0,50.0,-100.00,ENE,72,1.0,8.0,100,0.00,,,-99.99,,2013-04-28 16:33:00,
2013-04-28 12:43:00,52.0,50.0,-100.00,East,83,1.0,8.0,99,0.00,,,-99.99,,2013-04-28 16:43:00,
2013-04-28 12:52:00,53.0,52.0,-100.00,ENE,72,1.0,8.0,97,0.00,,,-99.99,,2013-04-28 16:52:00,
2013-04-28 13:02:00,55.0,52.0,-100.00,ENE,76,2.0,8.0,95,0.00,,,-99.99,,2013-04-28 17:02:00,
2013-04-28 13:12:00,57.0,54.0,-100.00,East,83,0.0,8.0,93,0.00,,,-99.99,,2013-04-28 17:12:00,
2013-04-28 13:22:00,56.0,52.0,-100.00,ENE,72,2.0,8.0,91,0.00,,,-99.99,,2013-04-28 17:22:00,
2013-04-28 13:32:00,56.0,54.0,-100.00,ENE,72,2.0,8.0,91,2.28,,,-99.99,,2013-04-28 17:32:00,
2013-04-28 13:42:00,56.0,54.0,-100.00,ENE,72,1.0,8.0,95,0.00,,,-99.99,,2013-04-28 17:42:00,
2013-04-28 13:52:00,57.0,55.0,-100.00,ENE,72,2.0,8.0,99,0.00,,,-99.99,,2013-04-28 17:52:00,
2013-04-28 14:02:00,55.0,52.0,-100.00,ENE,73,1.0,8.0,94,0.00,,,-99.99,,2013-04-28 18:02:00,
2013-04-28 14:12:00,56.0,54.0,-100.00,East,83,1.0,8.0,93,0.00,,,-99.99,,2013-04-28 18:12:00,
2013-04-28 14:22:00,56.0,54.0,-100.00,ENE,62,1.0,8.0,95,0.00,,,-99.99,,2013-04-28 18:22:00,
2013-04-28 14:32:00,56.0,54.0,-100.00,ENE,62,1.0,8.0,94,0.00,,,-99.99,,2013-04-28 18:32:00,
2013-04-28 14:42:00,56.0,54.0,-100.00,ENE,72,0.0,8.0,94,0.00,,,-99.99,,2013-04-28 18:42:00,
2013-04-28 14:52:00,56.0,54.0,-100.00,ENE,72,1.0,8.0,91,0.00,,,-99.99,,2013-04-28 18:52:00,
2013-04-28 15:02:00,56.0,52.0,-100.00,East,83,0.0,8.0,90,0.00,,,-99.99,,2013-04-28 19:02:00,
2013-04-28 15:11:00,57.0,54.0,-100.00,ENE,72,0.0,8.0,89,0.00,,,-99.99,,2013-04-28 19:11:00,
2013-04-28 15:22:00,57.0,54.0,-100.00,ENE,72,1.0,8.0,90,1.69,,,-99.99,,2013-04-28 19:22:00,
2013-04-28 15:32:00,57.0,54.0,-100.00,ENE,60,1.0,8.0,89,2.83,,,-99.99,,2013-04-28 19:32:00,
2013-04-28 15:42:00,56.0,54.0,-100.00,ENE,72,0.0,8.0,95,0.00,,,-99.99,,2013-04-28 19:42:00,
2013-04-28 15:52:00,56.0,54.0,-100.00,ENE,62,0.0,8.0,93,0.00,,,-99.99,,2013-04-28 19:52:00,
2013-04-28 16:02:00,57.0,54.0,-100.00,East,83,0.0,8.0,90,0.00,,,-99.99,,2013-04-28 20:02:00,
2013-04-28 16:12:00,57.0,54.0,-100.00,East,83,1.0,8.0,90,0.00,,,-99.99,,2013-04-28 20:12:00,
2013-04-28 16:22:00,57.0,54.0,-100.00,ENE,72,0.0,8.0,90,0.00,,,-99.99,,2013-04-28 20:22:00,
2013-04-28 16:32:00,58.0,54.0,-100.00,ENE,72,0.0,8.0,89,0.00,,,-99.99,,2013-04-28 20:32:00,
2013-04-28 16:42:00,58.0,52.0,-100.00,ENE,72,0.0,8.0,85,0.00,,,-99.99,,2013-04-28 20:42:00,
2013-04-28 16:52:00,58.0,52.0,-100.00,ENE,60,0.0,8.0,84,0.00,,,-99.99,,2013-04-28 20:52:00,
2013-04-28 17:01:00,58.0,52.0,-100.00,East,83,1.0,8.0,80,0.00,,,-99.99,,2013-04-28 21:01:00,
2013-04-28 17:11:00,59.0,52.0,-100.00,ENE,62,1.0,8.0,78,0.00,,,-99.99,,2013-04-28 21:11:00,
2013-04-28 17:22:00,60.0,52.0,-100.00,ENE,72,0.0,8.0,77,24.37,,,-99.99,,2013-04-28 21:22:00,
2013-04-28 17:33:00,58.0,54.0,-100.00,ENE,72,0.0,8.0,86,-99.99,,,-99.99,,2013-04-28 21:33:00,
2013-04-28 17:42:00,57.0,54.0,-100.00,ENE,72,0.0,8.0,93,0.00,,,-99.99,,2013-04-28 21:42:00,
2013-04-28 17:52:00,56.0,54.0,-100.00,ENE,72,0.0,8.0,94,0.00,,,-99.99,,2013-04-28 21:52:00,
2013-04-28 18:03:00,57.0,54.0,-100.00,ENE,72,1.0,8.0,91,0.00,,,-99.99,,2013-04-28 22:03:00,
2013-04-28 18:13:00,59.0,54.0,-100.00,ENE,62,1.0,8.0,82,0.00,,,-99.99,,2013-04-28 22:13:00,
2013-04-28 18:23:00,60.0,52.0,-100.00,East,83,2.0,8.0,80,0.00,,,-99.99,,2013-04-28 22:23:00,
2013-04-28 18:33:00,60.0,52.0,-100.00,ENE,62,2.0,8.0,78,0.00,,,-99.99,,2013-04-28 22:33:00,
2013-04-28 18:42:00,58.0,52.0,-100.00,ENE,62,1.0,8.0,80,0.00,,,-99.99,,2013-04-28 22:42:00,
2013-04-28 18:52:00,59.0,50.0,-100.00,ENE,69,1.0,8.0,78,0.00,,,-99.99,,2013-04-28 22:52:00,
2013-04-28 19:02:00,59.0,50.0,-100.00,ENE,62,1.0,8.0,77,1.14,,,-99.99,,2013-04-28 23:02:00,
2013-04-28 19:12:00,57.0,50.0,-100.00,ENE,72,1.0,8.0,78,-99.99,,,-99.99,,2013-04-28 23:12:00,
2013-04-28 19:22:00,57.0,52.0,-100.00,ENE,70,0.0,8.0,86,-99.99,,,-99.99,,2013-04-28 23:22:00,
2013-04-28 19:32:00,54.0,52.0,-100.00,ENE,72,0.0,8.0,99,-99.99,,,-99.99,,2013-04-28 23:32:00,
2013-04-28 19:42:00,52.0,32.0,-100.00,ENE,72,0.0,8.0,46,-99.99,,,-99.99,,2013-04-28 23:42:00,
2013-04-28 19:52:00,50.0,32.0,-100.00,ENE,72,0.0,8.0,49,10.79,,,-99.99,,2013-04-28 23:52:00,
2013-04-28 20:01:00,50.0,32.0,-100.00,ENE,72,0.0,8.0,49,10.20,,,-99.99,,2013-04-29 00:01:00,
2013-04-28 20:11:00,50.0,32.0,-100.00,ENE,72,0.0,8.0,49,11.89,,,-99.99,,2013-04-29 00:11:00,
2013-04-28 20:22:00,49.0,32.0,-100.00,ENE,72,0.0,8.0,51,30.63,,,-99.99,,2013-04-29 00:22:00,
2013-04-28 20:32:00,49.0,32.0,-100.00,ENE,72,0.0,8.0,51,-99.99,,,-99.99,,2013-04-29 00:32:00,
2013-04-28 20:42:00,48.0,32.0,-100.00,ENE,72,0.0,8.0,53,-99.99,,,-99.99,,2013-04-29 00:42:00,
2013-04-28 20:52:00,46.0,32.0,-100.00,ENE,72,1.0,8.0,57,-99.99,,,-99.99,,2013-04-29 00:52:00,
2013-04-28 21:01:00,45.0,32.0,-100.00,East,83,0.0,8.0,60,-99.99,,,-99.99,,2013-04-29 01:01:00,
2013-04-28 21:12:00,43.0,32.0,-100.00,ENE,72,0.0,8.0,64,-99.99,,,-99.99,,2013-04-29 01:12:00,
2013-04-28 21:21:00,43.0,32.0,-100.00,ENE,62,0.0,8.0,64,31.73,,,-99.99,,2013-04-29 01:21:00,
2013-04-28 21:32:00,42.0,32.0,-100.00,ENE,62,0.0,8.0,67,-99.99,,,-99.99,,2013-04-29 01:32:00,
2013-04-28 21:42:00,42.0,32.0,-100.00,ENE,70,0.0,8.0,67,-99.99,,,-99.99,,2013-04-29 01:42:00,
2013-04-28 21:52:00,42.0,32.0,-100.00,ENE,72,0.0,8.0,67,30.63,,,-99.99,,2013-04-29 01:52:00,
2013-04-28 22:02:00,42.0,32.0,-100.00,ENE,73,0.0,8.0,67,17.01,,,-99.99,,2013-04-29 02:02:00,
2013-04-28 22:11:00,42.0,32.0,-100.00,East,83,0.0,8.0,67,6.81,,,-99.99,,2013-04-29 02:11:00,
2013-04-28 22:22:00,43.0,32.0,-100.00,East,83,1.0,8.0,64,19.29,,,-99.99,,2013-04-29 02:22:00,
2013-04-28 22:32:00,44.0,32.0,-100.00,ENE,72,1.0,8.0,62,0.00,,,-99.99,,2013-04-29 02:32:00,
2013-04-28 22:42:00,44.0,32.0,-100.00,ENE,72,0.0,8.0,62,11.34,,,-99.99,,2013-04-29 02:42:00,
2013-04-28 22:52:00,44.0,32.0,-100.00,ENE,72,0.0,8.0,62,6.22,,,-99.99,,2013-04-29 02:52:00,
2013-04-28 23:01:00,45.0,32.0,-100.00,ENE,72,0.0,8.0,60,1.69,,,-99.99,,2013-04-29 03:01:00,
2013-04-28 23:12:00,45.0,32.0,-100.00,ENE,73,0.0,8.0,60,5.12,,,-99.99,,2013-04-29 03:12:00,
2013-04-28 23:21:00,45.0,32.0,-100.00,ENE,72,0.0,8.0,60,8.50,,,-99.99,,2013-04-29 03:21:00,
2013-04-28 23:33:00,45.0,32.0,-100.00,ENE,62,0.0,8.0,60,22.68,,,-99.99,,2013-04-29 03:33:00,
2013-04-28 23:42:00,44.0,32.0,-100.00,ENE,73,0.0,8.0,62,17.01,,,-99.99,,2013-04-29 03:42:00,
2013-04-28 23:52:00,44.0,32.0,-100.00,ENE,72,0.0,8.0,62,0.00,,,-99.99,,2013-04-29 03:52:00,